Location: ????????
(55.6189°N, 38.3031°E)
Time: 04:15:08
(UTC+00:00)

Cosmos 2219 Rocket - Pass Details

Date: 15 November 2019
Orbit: 827 x 847 km, 71.0° (Epoch: 11 December)

Event Time Altitude Azimuth Distance (km) Brightness Sun altitude
Exits shadow 02:47:15 11° 333° (NNW) 2,379 4.2 -18.4°
Maximum altitude 02:52:15 38° 40° (NE) 1,275 3.4 -17.7°
Drops below altitude 10° 02:57:30 10° 108° (ESE) 2,467 5.9 -17.0°
Sets 03:00:08 0° 116° (ESE) 3,402 6.8 -16.6°
